ROMMA est une association bénévole à but non lucratif. Votre soutien est indispensable : ADHERER à ROMMA ou FAIRE un DON

Chambon - (38, Isère)

Oisans (2460 m)   Longitude: 06° 10' 42" E   Latitude: 45° 01' 32" N Station partenaire n°803
 

Détail journalier du     <<     >>

Température Humidité Vent Dir Rafale Dir. rafale Neige 1 Neige 2
Heure (°C) (%) (km/h) (km/h) (cm) (cm)
01:00 -4.09925SSO41SSO0104
02:00 -4.09931SSO52SSO0107
03:00 -3.99935SSO56SO0108
04:00 -3.89938SO61OSO0112
05:00 -3.99936OSO55OSO0113
06:00 -4.79928OSO54OSO0114
07:00 -4.29923SO41SO0115
08:00 -4.19929SO45SO0115
09:00 -4.39928SSO47SSO0115
10:00 -4.39930OSO57OSO0120
11:00 -4.89733SO51SO0118
12:00 -5.29832OSO55OSO0115
13:00 -5.09827OSO45OSO0116
14:00 -4.89830SO49OSO0118
15:00 -4.99825OSO44OSO0120
16:00 -5.49820SSO43SO0119
17:00 -5.49820SSO34SO0119
18:00 -5.49816SO34SO0121
19:00 -5.19925SO41OSO0120
20:00 -5.59831SO47SO0120
21:00 -5.39820SO37SO0120
22:00 -5.09821SO34SO0120
23:00 -5.39720SO36SO0120
minuit -5.89621SO43SO0120

Graphique du 28-11-2019

 

Serveur OMMA